CSAPA LPCS-LPPT

Flight info

Callsign CSAPA
Flight time 0h -6m
Altitude 1500
Route LPCS DCT CARCA DCT ENACI DCT ODIVE DCT LPPT
Aircraft C152/L-V/N

Departure

Time 2026-04-22 00:09
Airport Cascais Airport (LPCS)

Arrival

Time 2026-04-22 00:03
Airport Lisbon Humberto Delgado Airport (LPPT)
Time Latitude Longitude Altitude Speed Heading
2026-04-22 00:02 38.72400 -9.35315 328 ft 0 kts 230°
2026-04-22 00:05 38.72397 -9.35320 328 ft 2 kts 230°
2026-04-22 00:05 38.72384 -9.35350 328 ft 7 kts 259°
2026-04-22 00:05 38.72371 -9.35429 328 ft 10 kts 254°
2026-04-22 00:06 38.72393 -9.35478 328 ft 8 kts 349°
2026-04-22 00:06 38.72462 -9.35498 328 ft 12 kts 346°
2026-04-22 00:06 38.72552 -9.35533 328 ft 15 kts 341°
2026-04-22 00:06 38.72657 -9.35573 328 ft 16 kts 343°
2026-04-22 00:07 38.72772 -9.35614 328 ft 18 kts 349°
2026-04-22 00:07 38.72890 -9.35644 328 ft 14 kts 348°
2026-04-22 00:07 38.72908 -9.35668 328 ft 1 kts 204°
2026-04-22 00:07 38.72885 -9.35658 328 ft 9 kts 155°
2026-04-22 00:08 38.72753 -9.35605 328 ft 41 kts 163°
2026-04-22 00:08 38.72340 -9.35455 407 ft 71 kts 163°
2026-04-22 00:08 38.71890 -9.35285 660 ft 67 kts 163°
2026-04-22 00:08 38.71405 -9.35084 809 ft 80 kts 160°
2026-04-22 00:09 38.70894 -9.34805 1051 ft 79 kts 156°
2026-04-22 00:09 38.70387 -9.34521 1268 ft 80 kts 156°
2026-04-22 00:09 38.69892 -9.34222 1494 ft 79 kts 153°
2026-04-22 00:09 38.69413 -9.33780 1563 ft 93 kts 133°
2026-04-22 00:10 38.69095 -9.33054 1584 ft 96 kts 106°
2026-04-22 00:10 38.69073 -9.32188 1542 ft 100 kts 77°
2026-04-22 00:10 38.69278 -9.31333 1527 ft 101 kts 71°
2026-04-22 00:10 38.69510 -9.30487 1515 ft 101 kts 70°
2026-04-22 00:11 38.69757 -9.29652 1503 ft 101 kts 69°
2026-04-22 00:11 38.70018 -9.28819 1490 ft 101 kts 68°
2026-04-22 00:11 38.70295 -9.27997 1480 ft 101 kts 66°
2026-04-22 00:11 38.70592 -9.27183 1468 ft 101 kts 64°
2026-04-22 00:12 38.70869 -9.26365 1461 ft 100 kts 66°
2026-04-22 00:12 38.71169 -9.25562 1457 ft 100 kts 62°
2026-04-22 00:12 38.71517 -9.24791 1446 ft 100 kts 60°
2026-04-22 00:12 38.71865 -9.24013 1437 ft 100 kts 60°
2026-04-22 00:13 38.72218 -9.23262 1437 ft 99 kts 58°
2026-04-22 00:13 38.72594 -9.22508 1441 ft 99 kts 57°
2026-04-22 00:13 38.72999 -9.21783 1426 ft 100 kts 52°
2026-04-22 00:13 38.73433 -9.21116 1432 ft 100 kts 49°
2026-04-22 00:14 38.73900 -9.20448 1421 ft 100 kts 48°
2026-04-22 00:14 38.74394 -9.19840 1435 ft 98 kts 38°
2026-04-22 00:14 38.74979 -9.19376 1429 ft 99 kts 26°
2026-04-22 00:14 38.75603 -9.19004 1437 ft 99 kts 26°
2026-04-22 00:15 38.76216 -9.18624 1450 ft 98 kts 25°
2026-04-22 00:15 38.76838 -9.18248 1451 ft 99 kts 25°
2026-04-22 00:15 38.77460 -9.17887 1460 ft 98 kts 24°
2026-04-22 00:15 38.78082 -9.17543 1463 ft 98 kts 22°
2026-04-22 00:16 38.78722 -9.17209 1469 ft 98 kts 21°
2026-04-22 00:16 38.79369 -9.16894 1473 ft 98 kts 20°
2026-04-22 00:16 38.80007 -9.16607 1478 ft 98 kts 19°
2026-04-22 00:16 38.80658 -9.16328 1481 ft 98 kts 18°
2026-04-22 00:17 38.81309 -9.16058 1484 ft 99 kts 14°
2026-04-22 00:17 38.81993 -9.16087 1457 ft 101 kts 341°
2026-04-22 00:17 38.82540 -9.16606 1481 ft 98 kts 307°
2026-04-22 00:17 38.82796 -9.17422 1453 ft 100 kts 278°
2026-04-22 00:18 38.82744 -9.18294 1468 ft 99 kts 252°
2026-04-22 00:18 38.82395 -9.19051 1458 ft 99 kts 227°
2026-04-22 00:18 38.81807 -9.19485 1441 ft 101 kts 192°
2026-04-22 00:18 38.81128 -9.19355 1428 ft 101 kts 153°
2026-04-22 00:19 38.80646 -9.18731 1440 ft 98 kts 117°
2026-04-22 00:19 38.80535 -9.17882 1453 ft 98 kts 83°
2026-04-22 00:19 38.80812 -9.17095 1461 ft 97 kts 48°
2026-04-22 00:19 38.81390 -9.16635 1423 ft 101 kts 17°
2026-04-22 00:20 38.82078 -9.16565 1444 ft 98 kts 352°
2026-04-22 00:20 38.82703 -9.16885 1444 ft 99 kts 324°
2026-04-22 00:20 38.83145 -9.17562 1445 ft 98 kts 296°
2026-04-22 00:20 38.83258 -9.18384 1490 ft 96 kts 263°
2026-04-22 00:21 38.82997 -9.19151 1543 ft 92 kts 229°
2026-04-22 00:21 38.82453 -9.19587 1562 ft 94 kts 194°
2026-04-22 00:21 38.81810 -9.19546 1570 ft 97 kts 161°
2026-04-22 00:21 38.81271 -9.19036 1559 ft 99 kts 128°
2026-04-22 00:22 38.80990 -9.18225 1533 ft 100 kts 101°
2026-04-22 00:22 38.81033 -9.17350 1534 ft 100 kts 71°
2026-04-22 00:22 38.81419 -9.16619 1514 ft 100 kts 42°
2026-04-22 00:22 38.82014 -9.16182 1526 ft 99 kts 22°
2026-04-22 00:23 38.82657 -9.15869 1525 ft 97 kts 20°
2026-04-22 00:23 38.83261 -9.15519 1492 ft 94 kts 34°
2026-04-22 00:23 38.83613 -9.14886 1520 ft 88 kts 75°
2026-04-22 00:23 38.83591 -9.14109 1510 ft 86 kts 107°
2026-04-22 00:24 38.83316 -9.13437 1471 ft 85 kts 121°
2026-04-22 00:24 38.82996 -9.12786 1401 ft 85 kts 122°
2026-04-22 00:24 38.82686 -9.12169 1295 ft 82 kts 122°
2026-04-22 00:24 38.82344 -9.11703 1232 ft 68 kts 155°
2026-04-22 00:25 38.81853 -9.11613 1042 ft 75 kts 188°
2026-04-22 00:25 38.81385 -9.11840 897 ft 68 kts 203°
2026-04-22 00:25 38.80946 -9.12088 739 ft 68 kts 201°
2026-04-22 00:25 38.80513 -9.12315 645 ft 64 kts 203°
2026-04-22 00:26 38.80100 -9.12536 583 ft 66 kts 202°
2026-04-22 00:26 38.79676 -9.12766 529 ft 65 kts 203°
2026-04-22 00:26 38.79250 -9.12992 422 ft 63 kts 203°
2026-04-22 00:26 38.78901 -9.13181 377 ft 45 kts 203°
2026-04-22 00:27 38.78664 -9.13310 377 ft 30 kts 203°
2026-04-22 00:27 38.78513 -9.13392 377 ft 18 kts 202°
2026-04-22 00:27 38.78422 -9.13437 377 ft 10 kts 192°
2026-04-22 00:27 38.78350 -9.13437 377 ft 11 kts 169°
2026-04-22 00:28 38.78275 -9.13418 377 ft 11 kts 169°
2026-04-22 00:28 38.78190 -9.13397 377 ft 14 kts 169°
2026-04-22 00:28 38.78090 -9.13370 377 ft 16 kts 167°
2026-04-22 00:28 38.77979 -9.13337 377 ft 17 kts 167°
2026-04-22 00:29 38.77922 -9.13269 377 ft 9 kts 79°
2026-04-22 00:29 38.77925 -9.13246 377 ft 0 kts 79°
2026-04-22 00:32 38.77925 -9.13245 377 ft 0 kts 79°